User: anonymous   Login
Location: Bothwell
(42.3833°S, 147.0000°E)
Time: 00:53:45
(UTC+10:00)
Language:

KKS-1 - Orbit

View from above orbital plane
View from above orbital plane
View from above satellite
View from above satellite

Ground track
Ground track

The orbit data is extracted from the following two-line orbital elements,

1 33499U 09002H   22273.78820389  .00001097  00000-0  16643-3 0  9990
2 33499  98.2007 157.5002 0008701 347.3199  12.7789 14.76147253735782
Epoch (UTC): 30 September 2022 18:55:00
Eccentricity: 0.0008701
inclination: 98.2007°
perigee height: 635 km
apogee height: 647 km
right ascension of ascending node: 157.5002°
argument of perigee: 347.3199°
revolutions per day: 14.76147253
mean anomaly at epoch: 12.7789°
orbit number at epoch: 73578

The dashed part of the orbit path shows where the satellite is in the earth's shadow,  

DLR